QPF
0.00 0.00 0.00 0.00 0.00 0.00 0.00 0.00 0.00 0.00 0.00 0.00 0.00 0.00 0.00 0.00 0.00 0.00 0.00 0.00 0.00 0.00 0.00 0.00 0.00 0.00 0.00 0.00 0.00 0.00 0.00 0.00 0.00 0.00 0.00 0.00 0.00 0.00 0.00 0.00 0.00 0.00
0.00 0.00 0.00 0.00 0.00 0.00 0.00 0.00 0.00 0.00 0.00 0.00 0.00 0.00 0.00 0.00 0.00 0.00 0.00 0.00 0.00 0.00 0.00 0.00 0.00 0.00 0.00 0.00 0.00 0.00 0.00 0.00 0.00 0.00 0.00 0.00 0.00 0.00 0.00 0.00 0.00 0.00
0.02 0.02 0.02 0.08 0.02 0.00 0.00 0.00 0.00 0.00 0.00 0.00 0.00 0.00 0.00 0.00 0.00 0.00 0.00 0.00 0.00 0.00 0.00 0.00 0.00 0.00 0.00 0.00 0.00 0.00 0.00 0.00 0.00 0.00 0.00 0.00 0.00 0.00 0.00 0.00 0.00 0.00
0.12 0.04 0.02 0.02 0.01 0.00 0.00 0.00 0.00 0.00 0.00 0.00 0.00 0.00 0.00 0.00 0.00 0.00 0.00 0.00 0.00 0.00 0.00 0.00 0.00 0.00 0.00 0.00 0.00 0.00 0.00 0.00 0.00 0.00 0.00 0.00 0.00 0.00 0.00 0.00 0.00 0.00
0.09 0.11 0.06 0.01 0.01 0.01 0.00 0.00 0.00 0.00 0.00 0.00 0.00 0.00 0.00 0.00 0.00 0.00 0.00 0.00 0.00 0.00 0.00 0.00 0.00 0.00 0.00 0.00 0.00 0.00 0.00 0.00 0.00 0.00 0.00 0.00 0.00 0.00 0.00 0.00 0.00 0.00
0.02 0.04 0.05 0.04 0.01 0.00 0.00 0.00 0.00 0.00 0.00 0.00 0.00 0.00 0.00 0.00 0.00 0.00 0.00 0.00 0.00 0.00 0.00 0.00 0.00 0.00 0.00 0.00 0.00 0.00 0.00 0.00 0.00 0.00 0.00 0.00 0.00 0.00 0.00 0.00 0.00 0.00
0.27 0.05 0.02 0.00 0.00 0.00 0.00 0.00 0.00 0.00 0.00 0.00 0.00 0.00 0.00 0.00 0.00 0.00 0.00 0.00 0.00 0.00 0.00 0.00 0.00 0.00 0.00 0.00 0.00 0.00 0.00 0.00 0.00 0.00 0.00 0.00 0.00 0.00 0.00 0.00 0.00 0.00
0.09 0.03 0.00 0.00 0.00 0.00 0.00 0.00 0.00 0.00 0.00 0.00 0.00 0.00 0.00 0.00 0.00 0.00 0.00 0.00 0.00 0.00 0.00 0.00 0.00 0.00 0.00 0.00 0.00 0.00 0.00 0.00 0.00 0.00 0.00 0.00 0.00 0.00 0.00 0.00 0.00 0.00
0.04 0.04 0.01 0.00 0.00 0.00 -0.00 0.00 0.00 -0.00 0.00 0.00 0.00 0.00 0.00 0.00 0.00 0.00 0.00 0.00 0.00 0.00 0.00 0.00 0.00 0.00 0.00 0.00 0.00 0.00 0.00 0.00 0.00 0.00 0.00 0.00 0.00 0.00 0.00 0.00 0.00 0.00
0.00 0.00 -0.00 0.00 0.00 0.02 0.02 0.00 0.00 0.00 -0.00 0.00 0.00 0.00 0.00 0.00 0.00 0.00 0.00 0.00 0.00 0.00 0.00 0.00 0.00 0.00 0.00 0.00 0.00 0.00 0.00 0.00 0.00 0.00 0.00 0.00 0.00 0.00 0.00 0.00 0.00 0.00
0.00 0.00 0.01 0.03 0.05 0.01 0.01 0.00 0.00 0.01 0.00 0.00 0.00 -0.00 -0.00 0.00 0.00 0.00 0.00 0.00 0.00 0.00 0.00 0.00 0.00 0.01 0.05 0.01 0.01 0.00 0.00 0.00 0.00 0.00 0.00 0.00 0.00 0.00 0.00 0.00 0.00 0.00
0.00 0.00 0.00 0.01 0.01 0.00 0.01 0.00 0.00 0.00 0.01 0.03 0.02 0.00 0.00 0.01 0.00 0.00 0.00 0.00 0.06 0.01 0.02 0.02 0.01 0.01 0.04 0.00 0.00 0.00 0.00 0.00 0.00 0.00 0.00 0.00 0.00 0.00 0.00 0.00 0.00 0.00
0.00 0.00 -0.00 0.00 0.00 0.00 0.00 0.02 0.01 0.00 0.01 0.01 0.00 0.00 0.01 0.01 0.05 0.01 0.03 0.01 0.01 0.10 0.11 0.01 0.01 0.02 0.01 0.00 0.00 0.00 0.00 0.00 0.00 0.00 0.00 0.00 0.00 0.00 0.00 0.00 0.00 0.00
0.00 0.00 -0.00 0.04 0.17 0.02 0.05 0.07 0.01 0.08 0.04 0.00 0.00 0.02 0.25 0.15 0.03 0.07 0.19 0.12 0.12 0.20 0.07 0.02 0.01 0.02 0.00 0.00 0.00 0.00 0.00 0.00 0.00 0.00 0.00 0.00 0.00 0.00 0.00 0.00 0.00 0.00
0.00 0.00 0.08 0.20 0.04 0.05 0.09 0.02 0.03 0.11 0.21 0.06 0.04 0.16 0.10 0.09 0.05 0.14 0.23 0.28 0.21 0.29 0.11 0.16 0.10 0.02 0.01 0.00 0.00 0.00 0.00 0.00 0.00 0.00 0.00 0.00 0.00 0.00 0.00 0.00 0.00 0.00
0.00 0.00 0.09 0.08 0.06 0.20 0.02 0.17 0.14 0.13 0.08 0.02 0.00 0.06 0.24 0.42 0.17 0.28 0.26 0.28 0.35 0.28 0.15 0.05 0.03 0.01 0.00 0.00 0.00 0.00 0.00 0.00 0.00 0.00 0.00 0.00 0.00 0.00 0.00 0.00 0.00 0.00
0.01 0.00 0.01 0.05 0.03 0.01 0.01 0.00 0.04 0.01 0.00 0.01 0.00 0.00 0.00 0.00 0.01 0.01 0.03 0.04 0.04 0.04 0.03 0.02 0.01 0.00 0.00 0.00 0.00 0.00 0.00 0.00 0.00 0.00 0.00 0.00 0.00 0.00 0.00 0.00 0.00 0.00
-0.00 0.00 0.00 0.00 0.00 0.01 0.05 0.05 0.07 0.01 0.00 0.00 0.00 0.00 0.00 0.00 0.00 0.00 0.00 0.00 0.00 0.00 0.00 0.00 0.00 0.00 0.00 0.00 0.00 0.00 0.00 0.00 0.00 0.00 0.00 0.00 0.00 0.00 0.00 0.00 0.00 0.00
0.00 0.01 0.00 0.01 0.15 0.52 0.10 0.13 0.02 0.00 0.00 0.00 0.00 0.00 0.00 0.00 0.00 0.00 0.00 0.00 0.00 0.00 0.00 0.00 0.00 0.00 0.00 0.00 0.00 0.00 0.00 0.00 0.00 0.00 0.00 0.00 0.00 0.00 0.00 0.00 0.00 0.00
-0.00 0.00 0.15 0.25 0.09 0.00 0.14 0.17 0.00 0.00 0.05 0.09 0.01 0.00 0.00 0.00 0.00 0.00 0.00 0.00 0.00 0.00 0.00 0.00 0.00 0.00 0.00 0.00 0.00 0.00 0.00 0.00 0.00 0.00 0.00 0.00 0.00 0.00 0.00 0.00 0.00 0.00
0.00 0.00 0.00 0.00 0.00 0.00 0.00 0.01 0.00 0.17 0.04 0.02 0.00 0.00 0.00 0.00 0.00 0.00 0.00 0.00 0.00 0.00 0.00 0.00 0.00 0.00 0.00 0.00 0.00 0.00 0.00 0.00 0.00 0.00 0.00 0.00 0.00 0.00 0.00 0.00 0.00 0.00
0.00 0.00 0.00 0.00 0.00 0.00 0.00 0.00 0.00 0.00 0.00 0.00 0.00 0.00 0.00 0.00 0.00 0.00 0.00 0.00 0.00 0.00 0.00 0.00 0.00 0.00 0.00 0.00 0.00 0.00 0.00 0.00 0.00 0.00 0.00 0.00 0.00 0.00 0.00 0.00 0.00 -0.00
0.00 0.00 0.00 0.00 0.00 0.00 0.00 0.00 0.00 0.00 0.00 0.00 0.00 0.00 0.00 0.00 0.00 0.00 0.00 0.00 0.00 0.00 0.00 0.00 0.00 0.00 0.00 0.00 0.00 0.00 0.00 0.00 0.00 0.00 0.00 0.00 0.00 0.00 0.00 -0.00 0.00 0.00
0.01 0.00 0.00 0.00 0.00 0.03 0.00 0.00 0.00 0.00 0.00 0.00 0.00 0.00 0.00 0.00 0.00 0.00 0.00 0.00 0.00 0.00 0.00 0.00 0.00 0.00 0.00 0.00 0.00 0.00 0.00 0.00 0.00 0.00 0.00 0.00 0.00 0.00 0.00 0.00 0.00 0.00
0.00 0.02 0.00 0.00 0.00 0.00 0.01 0.00 0.01 0.00 0.00 0.00 0.00 0.00 0.00 0.00 0.00 0.00 0.00 0.00 0.00 0.00 0.00 0.00 0.00 0.00 0.00 0.00 0.00 0.00 0.00 0.00 0.00 0.00 0.00 0.00 0.00 0.00 0.00 0.00 0.00 0.00
0.00 0.00 0.01 0.05 0.00 0.00 0.00 0.00 0.00 0.02 0.02 0.00 0.00 0.00 0.00 0.00 0.00 0.00 0.00 0.00 0.00 0.00 0.00 0.00 0.00 0.00 0.00 0.00 0.00 0.00 0.00 0.00 0.00 0.00 0.00 0.00 0.00 0.00 0.00 0.00 0.00 0.00
MSLP
1018.16 1018.04 1018.04 1018.12 1018.16 1018.32 1018.56 1018.80 1018.96 1019.04 1019.32 1019.40 1019.28 1019.44 1019.40 1019.48 1019.60 1019.64 1019.72 1019.80 1019.92 1020.04 1020.28 1020.40 1020.48 1020.48 1020.60 1020.68 1020.72 1020.80 1020.92 1021.08 1021.28 1021.36 1021.36 1021.48 1021.68 1021.64 1021.76 1021.92 1021.92 1021.88
1017.92 1018.00 1018.12 1018.16 1018.28 1018.48 1018.72 1018.96 1019.00 1019.04 1019.36 1019.48 1019.52 1019.64 1019.80 1019.84 1019.92 1020.00 1019.96 1020.04 1020.16 1020.28 1020.44 1020.48 1020.52 1020.48 1020.56 1020.60 1020.68 1020.72 1021.04 1021.04 1021.12 1021.32 1021.24 1021.32 1021.68 1021.72 1021.84 1021.96 1022.04 1022.24
1018.16 1018.16 1018.44 1018.36 1018.44 1018.52 1018.64 1018.88 1019.08 1019.20 1019.32 1019.56 1019.76 1019.88 1020.04 1020.20 1020.32 1020.40 1020.40 1020.32 1020.40 1020.60 1020.68 1020.72 1020.72 1020.76 1020.76 1020.80 1020.88 1020.88 1020.96 1021.04 1021.12 1021.32 1021.12 1021.28 1021.52 1021.52 1021.88 1022.00 1022.08 1022.12
1018.44 1018.68 1018.80 1018.20 1018.20 1018.48 1018.68 1018.84 1019.08 1019.28 1019.48 1019.64 1019.72 1019.96 1020.16 1020.36 1020.52 1020.68 1020.76 1020.80 1020.80 1020.96 1021.12 1021.12 1021.04 1021.08 1021.08 1021.12 1021.12 1021.16 1021.24 1021.20 1021.28 1021.32 1021.24 1021.44 1021.44 1021.52 1021.76 1021.88 1022.00 1022.12
1018.28 1018.36 1018.32 1018.52 1018.32 1018.60 1018.68 1018.84 1019.00 1019.16 1019.28 1019.44 1019.76 1019.96 1020.12 1020.36 1020.52 1020.68 1020.84 1020.96 1021.16 1021.24 1021.32 1021.28 1021.32 1021.28 1021.32 1021.36 1021.36 1021.36 1021.52 1021.52 1021.72 1021.60 1021.48 1021.48 1021.68 1021.60 1021.76 1021.80 1021.88 1022.04
1017.80 1018.24 1018.12 1018.24 1018.24 1018.28 1018.52 1018.76 1018.92 1019.08 1019.28 1019.40 1019.52 1019.84 1020.00 1020.24 1020.40 1020.56 1020.72 1020.88 1021.04 1021.24 1021.28 1021.40 1021.40 1021.44 1021.52 1021.48 1021.52 1021.48 1021.60 1021.68 1021.92 1021.84 1021.68 1021.68 1021.88 1022.04 1022.04 1021.96 1021.96 1022.08
1018.44 1018.72 1018.52 1018.48 1018.28 1018.20 1018.36 1018.60 1018.88 1018.96 1019.08 1019.00 1019.44 1019.68 1019.96 1020.12 1020.32 1020.48 1020.60 1020.76 1020.92 1021.04 1021.16 1021.24 1021.32 1021.44 1021.64 1021.72 1021.64 1021.72 1022.00 1022.12 1022.24 1022.28 1022.08 1022.24 1022.28 1022.28 1022.36 1022.16 1022.04 1022.12
1018.24 1018.36 1018.48 1018.56 1018.36 1018.08 1018.16 1018.44 1018.76 1018.96 1019.00 1019.28 1019.08 1019.52 1019.68 1019.88 1020.12 1020.40 1020.56 1020.68 1020.80 1021.00 1021.12 1021.24 1021.32 1021.40 1021.64 1021.72 1021.72 1021.76 1021.88 1022.08 1022.16 1022.12 1022.16 1022.24 1022.44 1022.36 1022.60 1022.68 1022.44 1022.32
1017.96 1017.76 1017.92 1018.36 1018.60 1018.60 1018.32 1018.24 1018.44 1018.80 1019.00 1019.24 1019.36 1019.32 1019.60 1019.80 1020.12 1020.36 1020.56 1020.72 1020.88 1021.04 1021.20 1021.36 1021.52 1021.64 1021.72 1021.68 1021.72 1021.72 1021.76 1021.96 1022.12 1022.12 1022.08 1022.12 1022.24 1022.32 1022.44 1022.80 1022.68 1022.56
1017.80 1017.92 1018.12 1018.36 1018.56 1018.76 1018.72 1018.36 1018.24 1018.52 1018.88 1019.16 1019.28 1019.60 1019.84 1020.04 1020.24 1020.44 1020.60 1020.68 1020.84 1021.04 1021.28 1021.48 1021.72 1022.04 1022.32 1022.40 1022.08 1021.88 1021.76 1021.80 1022.00 1022.12 1022.12 1022.08 1022.00 1022.16 1022.44 1022.60 1022.52 1022.56
1017.92 1018.00 1018.28 1018.52 1018.40 1018.60 1018.68 1018.48 1018.24 1018.40 1018.72 1019.08 1019.36 1019.56 1019.88 1019.92 1020.08 1020.24 1020.52 1020.68 1020.80 1020.92 1021.00 1021.12 1021.20 1021.32 1021.48 1021.76 1022.12 1022.20 1022.08 1021.92 1021.96 1022.00 1022.04 1022.00 1022.04 1022.12 1022.20 1022.28 1022.44 1022.36
1017.68 1017.84 1018.12 1018.32 1018.20 1018.16 1018.24 1018.16 1017.96 1018.04 1018.36 1018.88 1019.28 1019.56 1019.92 1020.24 1020.32 1020.32 1020.48 1020.76 1021.00 1021.20 1021.28 1021.20 1021.16 1021.20 1021.44 1021.76 1022.00 1022.20 1022.20 1022.04 1022.00 1022.00 1022.04 1022.12 1022.20 1022.28 1022.32 1022.36 1022.20 1022.24
1017.48 1017.60 1017.84 1017.96 1017.96 1018.04 1018.32 1018.40 1018.20 1018.20 1018.40 1018.72 1019.00 1019.28 1019.52 1019.80 1020.12 1020.24 1020.36 1020.52 1020.76 1020.88 1020.92 1021.40 1021.60 1021.72 1021.76 1021.72 1021.76 1021.96 1022.16 1022.00 1021.88 1021.92 1021.92 1022.00 1022.04 1022.04 1022.08 1022.16 1022.20 1022.20
1017.32 1017.48 1017.60 1017.64 1017.68 1018.00 1018.24 1018.36 1018.40 1018.44 1018.56 1018.80 1019.00 1019.08 1019.20 1019.32 1019.60 1019.88 1020.04 1020.32 1020.68 1020.84 1021.12 1021.32 1021.64 1021.80 1021.80 1021.76 1021.80 1021.88 1021.96 1021.84 1021.84 1021.80 1021.76 1021.76 1021.76 1021.84 1021.92 1021.92 1021.96 1022.04
1017.24 1017.36 1017.32 1017.32 1017.56 1017.68 1017.76 1017.92 1018.08 1018.28 1018.72 1019.24 1019.28 1019.24 1019.28 1019.40 1019.52 1019.76 1020.08 1020.40 1020.84 1021.04 1021.20 1021.24 1021.64 1021.72 1021.60 1021.52 1021.52 1021.60 1021.64 1021.60 1021.64 1021.68 1021.68 1021.68 1021.72 1021.76 1021.80 1021.80 1021.80 1021.80
1016.84 1016.96 1016.96 1017.00 1017.24 1017.40 1017.72 1017.72 1017.72 1017.64 1017.68 1018.24 1018.80 1019.00 1019.00 1018.76 1019.20 1020.08 1020.28 1020.36 1020.60 1021.08 1021.36 1021.36 1021.44 1021.44 1021.32 1021.32 1021.36 1021.32 1021.32 1021.32 1021.40 1021.40 1021.40 1021.40 1021.40 1021.40 1021.40 1021.48 1021.44 1021.48
1017.04 1016.92 1016.76 1016.88 1016.84 1016.80 1017.08 1017.44 1017.68 1017.80 1017.76 1018.04 1018.44 1018.68 1018.72 1018.80 1018.80 1019.20 1019.68 1019.72 1019.68 1020.40 1020.80 1020.96 1021.16 1021.08 1021.04 1021.08 1021.16 1021.20 1021.16 1021.16 1021.16 1021.16 1021.28 1021.28 1021.28 1021.24 1021.08 1021.08 1021.20 1021.32
1017.16 1017.32 1017.56 1017.44 1017.60 1017.72 1017.68 1017.64 1017.60 1017.68 1017.80 1017.96 1018.16 1018.40 1018.56 1018.76 1018.96 1019.00 1019.20 1019.52 1019.76 1020.24 1020.64 1020.80 1020.80 1020.80 1020.92 1021.08 1021.08 1021.08 1021.12 1021.04 1021.12 1021.12 1021.20 1021.28 1021.32 1021.32 1021.24 1021.24 1021.16 1021.12
1017.28 1017.24 1017.24 1017.24 1017.28 1017.28 1017.24 1018.08 1018.04 1017.92 1017.92 1018.08 1018.20 1018.20 1018.44 1018.60 1018.68 1018.88 1019.04 1019.36 1019.72 1020.12 1020.44 1020.60 1020.72 1020.92 1020.96 1021.08 1021.16 1021.04 1020.96 1021.04 1021.08 1021.24 1021.24 1021.20 1021.24 1021.24 1021.20 1021.16 1021.16 1021.16
1017.32 1017.32 1017.12 1016.92 1016.68 1016.72 1017.12 1017.68 1017.88 1017.76 1017.88 1018.08 1018.20 1018.40 1018.44 1018.48 1018.68 1018.76 1019.08 1019.44 1019.72 1020.00 1020.28 1020.56 1020.68 1020.80 1020.92 1021.00 1020.92 1020.84 1020.96 1021.08 1021.16 1021.20 1021.24 1021.28 1021.20 1021.16 1021.08 1021.04 1021.00 1021.04
1017.24 1017.16 1017.00 1017.00 1017.20 1017.16 1017.08 1017.20 1017.68 1017.96 1018.12 1018.12 1018.12 1018.20 1018.28 1018.32 1018.52 1018.72 1019.00 1019.32 1019.68 1019.92 1020.12 1020.36 1020.52 1020.60 1020.84 1020.96 1021.00 1021.08 1021.04 1021.08 1021.16 1021.24 1021.28 1021.28 1021.32 1021.28 1021.20 1021.12 1021.16 1021.16
1017.36 1017.40 1017.08 1017.04 1017.20 1017.24 1017.16 1017.32 1017.56 1017.64 1017.60 1017.80 1018.00 1018.20 1018.24 1018.36 1018.64 1018.80 1019.00 1019.28 1019.64 1019.88 1020.08 1020.08 1020.20 1020.72 1021.12 1021.16 1021.08 1020.72 1020.80 1020.84 1020.96 1021.00 1021.12 1021.28 1021.36 1021.48 1021.44 1021.48 1021.48 1021.40
1017.40 1017.20 1017.32 1017.24 1017.28 1017.36 1017.44 1017.56 1017.56 1017.60 1017.60 1017.84 1017.80 1017.92 1018.00 1018.24 1018.40 1018.64 1018.96 1019.28 1019.76 1019.84 1019.64 1019.84 1020.48 1021.04 1020.80 1020.72 1020.96 1020.76 1020.72 1020.92 1021.00 1021.20 1021.36 1021.48 1021.84 1022.00 1021.92 1021.76 1021.68 1021.64
1017.24 1017.12 1017.24 1017.72 1017.60 1017.04 1017.32 1017.56 1017.76 1017.76 1017.60 1017.80 1017.48 1017.84 1017.96 1018.24 1018.60 1018.84 1019.28 1019.44 1019.44 1019.60 1019.92 1020.12 1020.72 1020.96 1021.00 1021.16 1021.16 1020.84 1020.72 1020.84 1021.08 1021.20 1021.60 1021.80 1022.08 1022.40 1022.44 1022.28 1022.20 1022.00
1017.32 1017.44 1017.16 1017.12 1017.64 1017.40 1017.12 1017.28 1017.36 1017.24 1017.52 1017.64 1017.36 1017.44 1017.84 1018.52 1018.56 1018.76 1019.44 1019.80 1020.00 1020.16 1020.44 1020.52 1020.72 1021.12 1021.32 1021.24 1021.12 1020.92 1020.84 1021.00 1021.12 1021.28 1021.44 1021.88 1021.92 1022.28 1022.68 1022.64 1022.60 1022.56
1017.44 1017.32 1017.20 1016.88 1016.96 1017.56 1017.76 1017.20 1017.56 1017.72 1017.80 1017.80 1018.08 1018.08 1018.52 1019.00 1019.24 1019.32 1019.40 1020.04 1020.44 1020.48 1020.60 1020.64 1020.64 1020.96 1021.16 1021.08 1020.96 1020.96 1020.96 1020.96 1021.08 1021.00 1021.32 1021.84 1022.32 1022.20 1022.20 1022.76 1022.84 1022.88
Thickness
5596 5597 5598 5598 5598 5595 5592 5590 5590 5590 5588 5587 5588 5586 5586 5586 5586 5586 5585 5584 5583 5582 5581 5581 5580 5581 5581 5580 5580 5580 5579 5578 5577 5577 5577 5576 5575 5574 5573 5571 5572 5572
5593 5594 5593 5592 5592 5592 5588 5587 5587 5587 5585 5584 5583 5582 5581 5581 5580 5581 5580 5580 5579 5579 5578 5578 5578 5579 5578 5578 5578 5577 5576 5576 5575 5575 5575 5574 5572 5572 5571 5570 5569 5569
5589 5587 5586 5587 5588 5588 5585 5585 5584 5584 5582 5581 5580 5578 5577 5576 5575 5575 5576 5576 5575 5574 5574 5574 5574 5575 5575 5575 5575 5574 5574 5574 5573 5573 5573 5573 5572 5570 5569 5568 5567 5567
5584 5579 5579 5582 5584 5584 5582 5582 5581 5580 5580 5578 5577 5575 5573 5572 5571 5571 5571 5571 5571 5570 5570 5570 5570 5571 5571 5571 5571 5571 5570 5571 5570 5571 5571 5571 5570 5569 5567 5566 5565 5565
5582 5579 5579 5581 5581 5581 5580 5580 5579 5578 5577 5576 5575 5573 5571 5570 5569 5568 5567 5567 5567 5566 5565 5566 5566 5566 5566 5566 5567 5566 5566 5566 5566 5567 5568 5567 5567 5567 5566 5565 5565 5563
5582 5578 5579 5579 5579 5581 5580 5579 5578 5576 5575 5575 5573 5572 5570 5569 5567 5565 5565 5564 5564 5563 5563 5562 5562 5562 5562 5562 5563 5562 5562 5561 5561 5561 5563 5563 5563 5562 5562 5562 5563 5562
5578 5573 5574 5575 5577 5580 5579 5578 5577 5575 5575 5574 5572 5570 5568 5567 5565 5564 5563 5562 5561 5561 5560 5560 5560 5559 5559 5558 5559 5558 5558 5558 5557 5557 5558 5557 5558 5558 5557 5558 5559 5559
5577 5575 5574 5574 5575 5577 5578 5577 5576 5574 5573 5572 5571 5569 5567 5566 5564 5562 5561 5560 5560 5559 5558 5558 5558 5557 5556 5556 5556 5556 5555 5555 5554 5554 5555 5554 5554 5554 5553 5553 5554 5555
5576 5577 5576 5573 5571 5571 5573 5575 5575 5573 5571 5569 5568 5567 5565 5564 5562 5560 5559 5558 5557 5556 5556 5555 5554 5553 5552 5552 5553 5553 5553 5553 5552 5552 5553 5553 5553 5552 5551 5550 5550 5551
5574 5574 5573 5570 5568 5567 5568 5571 5572 5571 5568 5566 5565 5563 5562 5561 5560 5558 5557 5556 5556 5555 5554 5553 5552 5550 5549 5548 5549 5549 5550 5550 5550 5550 5550 5551 5551 5551 5549 5549 5548 5549
5571 5571 5569 5567 5567 5567 5567 5569 5571 5570 5568 5565 5562 5561 5558 5557 5557 5556 5555 5553 5552 5552 5552 5551 5551 5551 5550 5547 5546 5545 5546 5547 5547 5547 5547 5548 5548 5548 5548 5547 5547 5547
5570 5569 5567 5566 5567 5567 5567 5567 5569 5570 5567 5564 5560 5558 5555 5552 5552 5552 5552 5550 5549 5549 5549 5547 5548 5548 5547 5546 5544 5542 5542 5543 5544 5544 5544 5545 5545 5545 5545 5545 5545 5545
5569 5568 5566 5566 5566 5565 5564 5563 5564 5566 5565 5562 5559 5557 5555 5553 5551 5550 5550 5548 5547 5547 5545 5543 5542 5542 5542 5542 5542 5541 5540 5541 5542 5542 5542 5542 5542 5543 5543 5543 5544 5544
5567 5566 5566 5566 5565 5564 5562 5561 5561 5561 5560 5557 5556 5556 5555 5554 5551 5550 5549 5547 5545 5543 5542 5540 5539 5538 5538 5539 5539 5539 5539 5539 5540 5540 5540 5540 5540 5540 5541 5542 5542 5542
5565 5565 5565 5565 5563 5562 5561 5561 5561 5560 5557 5554 5552 5553 5553 5553 5551 5548 5546 5544 5542 5540 5540 5539 5535 5534 5536 5536 5536 5536 5537 5537 5537 5537 5537 5538 5538 5538 5538 5539 5539 5540
5564 5565 5565 5564 5564 5563 5561 5561 5559 5560 5559 5555 5551 5550 5552 5553 5551 5545 5542 5542 5540 5537 5536 5535 5532 5531 5533 5533 5533 5534 5534 5535 5535 5535 5535 5536 5536 5536 5536 5536 5537 5537
5559 5560 5561 5562 5562 5562 5561 5560 5558 5557 5557 5554 5551 5550 5550 5551 5549 5544 5541 5541 5540 5535 5532 5531 5530 5531 5532 5532 5531 5531 5532 5533 5533 5533 5534 5533 5534 5535 5535 5535 5536 5535
5553 5554 5554 5555 5554 5553 5553 5553 5551 5551 5551 5550 5549 5548 5547 5546 5545 5543 5541 5538 5536 5532 5529 5528 5527 5528 5528 5529 5528 5529 5529 5529 5530 5530 5530 5530 5531 5531 5532 5532 5532 5532
5547 5548 5549 5549 5550 5552 5551 5547 5545 5546 5546 5545 5544 5543 5543 5542 5541 5540 5538 5534 5532 5528 5526 5524 5524 5523 5523 5523 5524 5526 5526 5526 5526 5526 5527 5527 5528 5528 5528 5529 5529 5529
5540 5542 5544 5546 5547 5549 5549 5544 5542 5543 5542 5540 5539 5539 5538 5538 5537 5536 5534 5531 5527 5525 5522 5520 5519 5519 5518 5518 5520 5521 5522 5522 5522 5522 5522 5523 5523 5524 5524 5525 5524 5524
5534 5535 5538 5540 5540 5541 5542 5540 5538 5537 5536 5535 5534 5534 5534 5534 5533 5531 5529 5527 5524 5521 5518 5516 5515 5515 5514 5514 5516 5516 5517 5517 5518 5518 5518 5518 5518 5518 5519 5518 5518 5517
5526 5528 5531 5532 5532 5533 5534 5533 5532 5532 5532 5532 5531 5530 5530 5529 5528 5527 5525 5522 5519 5517 5515 5514 5513 5510 5509 5510 5511 5512 5513 5513 5512 5512 5512 5511 5511 5510 5511 5510 5510 5510
5519 5521 5523 5523 5524 5525 5525 5524 5525 5525 5526 5526 5526 5525 5524 5523 5522 5520 5519 5517 5514 5513 5513 5511 5508 5506 5505 5506 5506 5506 5507 5506 5505 5505 5504 5503 5502 5501 5501 5502 5503 5502
5512 5513 5515 5515 5515 5518 5518 5517 5517 5518 5519 5519 5520 5521 5519 5517 5516 5513 5511 5509 5509 5507 5506 5504 5501 5499 5500 5499 5498 5500 5500 5499 5499 5497 5496 5495 5494 5493 5493 5493 5494 5493
5503 5505 5507 5507 5508 5510 5512 5512 5511 5511 5512 5513 5515 5515 5512 5509 5508 5506 5503 5500 5500 5499 5497 5495 5494 5492 5492 5492 5492 5493 5493 5492 5492 5491 5489 5488 5487 5486 5486 5485 5485 5485
5496 5497 5499 5502 5502 5502 5503 5504 5505 5504 5504 5504 5504 5504 5501 5499 5497 5496 5494 5491 5489 5488 5487 5487 5487 5486 5485 5486 5486 5487 5486 5486 5486 5486 5484 5482 5480 5480 5480 5478 5477 5476